Temperature
31 31 31 30 31 32 31 31 30 30 30 30 29 29 28 28 27 26 25 25 23 23 22 21 21 20 20 19 19 19 18 18 17 17 17 17 16 16 16 16 16 16 16 16
29 30 31 30 30 31 31 31 31 31 30 31 30 29 28 27 27 26 25 24 23 22 21 21 20 20 19 19 19 18 18 18 17 17 17 16 16 16 16 16 16 15 15 15
28 29 29 29 30 30 30 30 30 30 30 30 29 28 28 27 26 25 24 24 23 22 21 21 20 20 19 19 18 18 17 17 17 17 16 16 16 16 16 16 15 15 15 15
28 28 27 29 31 31 30 29 29 29 29 29 29 28 27 26 26 24 24 23 23 22 21 20 20 19 19 18 18 17 17 17 17 16 16 16 16 16 16 16 15 15 15 15
27 27 27 29 29 30 29 28 29 28 28 28 28 27 27 25 24 24 23 22 22 22 21 20 20 19 18 18 18 17 17 16 16 16 16 16 16 16 15 15 15 15 15 15
27 26 26 27 28 29 29 27 28 28 27 27 27 26 26 24 23 23 22 22 21 21 21 20 19 19 18 18 17 17 17 16 16 16 16 16 15 15 15 15 15 15 15 15
26 26 26 27 28 29 27 26 27 26 26 26 26 25 24 23 22 22 21 21 21 20 20 19 19 18 18 17 17 17 16 16 16 16 16 15 15 15 15 15 15 15 15 14
25 25 25 26 27 26 26 26 26 26 25 25 24 24 23 22 22 21 20 20 20 20 19 19 18 18 17 17 17 16 16 16 16 15 15 15 15 15 15 14 14 14 14 14
25 25 25 26 26 25 26 25 25 25 24 24 23 23 22 21 21 20 20 19 19 19 19 18 18 18 17 17 17 16 16 16 15 15 15 15 15 15 14 14 14 14 14 14
24 24 25 25 25 25 24 25 24 24 24 23 23 22 21 21 20 19 19 19 18 18 18 17 17 17 17 16 16 16 16 15 15 15 15 15 15 14 14 14 14 14 14 14
23 24 24 24 24 24 24 24 24 23 23 23 22 21 21 20 19 19 18 18 18 18 17 17 17 16 16 16 16 16 15 15 15 15 15 15 14 14 14 14 14 14 14 14
23 23 23 23 23 23 23 23 23 22 22 22 21 21 20 19 19 18 18 18 17 17 17 16 16 16 16 16 16 15 15 15 15 15 14 14 14 14 14 14 14 14 14 14
23 22 22 22 22 22 22 22 22 21 21 21 21 20 20 19 18 18 17 17 17 16 16 16 16 16 16 15 15 15 15 15 15 15 15 14 14 14 14 14 14 14 14 14
21 21 21 21 21 21 21 21 21 21 21 20 20 19 19 18 18 17 17 17 16 16 16 16 16 15 15 15 15 15 15 15 15 14 14 14 14 14 14 14 14 14 14 14
20 20 20 20 20 20 20 20 20 20 20 20 19 19 18 17 17 17 16 16 16 16 16 15 15 15 15 15 15 15 14 14 14 14 14 14 14 14 14 14 14 13 13 13
20 20 20 20 19 19 19 20 20 20 19 19 18 18 17 17 16 16 16 16 15 15 15 15 15 14 14 14 14 14 14 14 14 14 14 14 14 14 14 13 13 13 13 13
19 19 19 19 19 19 19 19 19 19 19 18 18 17 16 16 16 15 15 15 15 15 15 14 14 14 14 14 14 14 14 14 14 14 14 14 14 13 14 13 13 13 13 13
18 18 18 18 18 18 18 18 18 18 18 17 17 16 16 15 15 15 15 15 14 14 14 14 14 14 13 13 13 13 13 13 13 13 13 13 13 13 13 13 13 13 13 13
18 18 18 17 17 17 17 17 17 17 17 16 16 16 15 15 15 14 14 14 14 14 14 14 14 13 13 13 13 13 13 13 13 13 13 13 13 13 13 13 13 13 13 13
17 17 17 17 17 17 17 17 17 16 16 16 15 15 15 14 14 14 14 14 14 14 14 14 13 13 13 13 13 13 13 13 13 13 13 13 13 13 13 13 13 13 12 12
16 16 16 16 16 16 16 16 16 16 15 15 15 15 14 14 14 14 13 14 14 13 13 13 13 13 13 13 13 13 13 13 13 13 13 13 13 13 13 12 12 12 12 12
15 15 15 15 15 15 15 15 15 15 15 15 14 14 14 14 14 13 13 13 13 13 13 13 13 13 13 13 13 13 13 13 13 13 13 13 13 12 12 12 12 12 12 12
14 14 14 14 14 14 14 14 14 14 14 14 14 14 14 14 14 13 13 13 13 13 13 13 13 13 13 13 13 13 13 13 13 13 13 12 12 12 12 12 12 12 12 11
14 14 13 14 14 14 14 14 14 14 14 14 14 14 13 13 13 13 13 13 13 13 13 13 13 13 13 12 12 13 13 13 12 12 12 12 12 12 12 12 12 12 11 11
13 13 13 13 13 13 13 13 13 13 13 13 14 13 13 13 13 13 13 13 13 13 13 13 13 13 13 12 12 12 12 12 12 12 12 12 12 12 12 12 11 11 11 11
13 13 13 13 13 13 13 13 13 13 13 13 13 13 13 13 13 13 13 12 12 12 12 12 12 12 12 12 12 12 12 12 12 12 11 11 11 11 11 11 11 11 10 10
13 13 13 13 13 13 13 13 13 13 13 13 13 13 13 13 13 12 12 12 12 12 12 12 12 12 12 12 12 12 11 11 11 11 11 11 11 10 10 10 10 10 10 9
Wind_Speed
14 11 11 13 14 14 13 12 11 8 6 3 2 5 5 5 5 6 6 6 5 5 6 5 4 4 4 3 4 4 5 4 4 3 2 2 2 3 2 3 4 3 3 3
14 14 13 13 14 14 13 11 10 8 5 2 3 4 5 4 4 5 5 5 5 5 6 6 5 4 4 3 3 3 4 4 3 3 2 2 3 3 3 3 3 3 3 3
15 14 14 16 13 13 11 7 9 9 6 2 4 5 4 4 4 5 4 4 4 4 4 5 5 5 4 4 3 3 3 3 3 2 3 3 3 3 3 3 3 3 3 3
14 15 18 11 7 7 6 6 6 5 3 1 2 3 3 4 4 4 3 2 3 3 4 4 4 5 4 4 4 3 3 3 3 3 3 3 3 3 3 3 3 4 4 4
12 15 14 9 7 9 7 7 6 4 3 2 2 2 3 5 5 4 2 2 1 2 3 3 3 4 4 4 4 3 3 3 3 3 3 3 3 3 4 4 4 4 4 4
12 15 14 7 8 9 7 6 3 2 2 0 1 2 1 5 5 5 4 3 2 1 3 3 3 4 4 4 4 4 3 3 2 3 3 4 3 4 4 4 4 5 5 4
14 15 10 6 8 9 8 2 3 3 4 2 1 2 5 5 5 5 4 3 2 1 1 2 3 3 3 3 3 3 3 3 3 3 4 4 4 4 4 4 5 5 5 5
12 14 8 5 7 6 3 3 2 3 3 4 4 5 5 4 4 3 3 3 2 1 1 1 2 2 2 3 2 2 2 3 3 4 5 5 3 4 4 5 6 6 5 6
6 5 2 2 4 4 4 3 3 2 3 3 2 3 2 2 2 2 2 1 1 1 1 1 1 2 3 2 1 2 2 3 4 4 4 4 4 5 5 5 6 5 5 5
6 5 5 4 3 4 5 4 3 3 2 2 1 2 2 1 1 1 1 0 1 1 1 1 1 2 2 2 2 2 3 3 3 4 5 4 4 4 4 4 5 4 4 4
8 5 6 5 5 5 6 6 4 3 2 2 1 0 0 0 1 1 1 1 1 2 2 2 2 2 2 2 2 3 4 4 5 5 5 3 3 3 4 3 3 4 4 3
7 4 5 5 6 7 7 7 6 5 4 3 2 2 2 2 2 2 2 2 2 2 3 2 3 3 2 2 3 4 4 5 5 5 4 4 4 3 1 2 3 4 4 4
6 6 6 6 6 6 7 7 6 6 5 4 3 3 3 3 2 2 2 3 2 3 3 3 3 3 2 3 3 4 5 5 6 5 5 5 5 4 3 2 2 3 5 5
6 6 6 6 7 7 8 8 8 7 6 4 3 2 3 2 2 2 2 3 3 3 4 4 3 3 3 3 4 4 6 6 6 5 5 5 4 4 4 4 4 3 3 6
6 7 7 7 7 8 9 8 8 7 5 3 2 2 3 3 2 2 2 3 3 4 4 3 3 3 3 4 4 5 6 5 5 5 4 4 4 4 4 3 3 3 2 3
8 8 8 8 8 8 9 9 8 7 5 3 2 2 2 3 2 3 2 2 3 4 3 3 3 3 3 4 5 5 5 6 5 5 5 5 4 4 4 3 3 3 3 3
8 8 8 8 7 8 9 8 7 6 4 4 3 3 3 3 3 3 3 4 4 4 3 3 3 3 4 5 5 5 5 5 6 5 5 5 4 5 4 4 4 3 3 3
8 8 8 8 7 8 7 7 7 6 4 4 4 3 3 3 4 4 4 4 3 4 4 4 2 3 4 5 5 5 5 5 5 5 4 3 4 5 5 4 4 3 3 3
7 7 7 7 7 7 7 7 7 6 3 3 3 4 4 4 4 4 4 4 4 5 4 2 2 4 4 4 4 4 5 5 4 3 3 4 5 4 3 3 3 2 3 3
6 7 7 7 7 7 7 7 6 5 4 4 4 5 5 5 5 5 5 5 4 4 2 2 3 4 4 3 4 5 5 4 4 3 3 4 3 3 3 3 2 2 2 2
7 6 6 6 6 7 7 7 6 5 4 5 5 6 5 5 5 5 5 5 3 2 2 3 4 4 2 2 4 5 4 3 3 3 3 3 2 2 2 2 2 2 2 2
6 5 6 6 6 6 6 6 5 5 5 5 6 6 5 5 5 4 4 3 2 1 2 2 2 1 0 2 4 4 4 3 3 3 3 2 2 2 2 2 2 2 2 2
5 5 5 6 5 5 5 5 5 5 5 5 5 5 6 5 4 3 3 2 2 2 1 0 1 2 1 3 3 3 3 2 2 2 2 2 2 2 2 2 2 1 1 1
3 3 4 4 4 4 4 5 5 4 4 4 4 4 4 3 3 2 1 1 2 2 1 2 2 1 2 3 2 2 1 1 1 1 1 1 1 1 1 1 1 1 0 1
3 3 3 4 4 3 4 3 3 4 4 3 3 3 3 2 2 1 1 1 3 3 1 2 3 2 2 1 1 1 2 2 2 2 2 1 1 1 1 1 1 1 1 1
2 2 2 3 3 3 2 2 1 1 1 1 0 0 0 1 1 1 1 2 2 2 1 1 1 2 1 0 1 1 2 2 2 1 2 2 2 3 2 2 2 2 2 2
1 1 2 3 3 2 2 1 0 0 0 1 1 1 1 1 1 1 1 1 2 2 1 1 1 1 1 1 1 1 1 2 2 1 2 2 2 2 2 3 2 2 2 2
Wind_Direction
266 265 258 268 268 265 261 264 268 269 258 217 156 129 126 126 126 128 130 128 123 136 133 134 136 139 144 157 160 166 164 171 178 188 201 217 220 219 219 231 238 240 245 249
272 265 259 263 266 268 271 272 269 272 261 195 135 119 117 129 136 128 130 134 147 150 147 153 153 149 151 159 162 158 165 178 172 182 197 215 232 226 211 220 238 242 240 247
271 270 270 256 257 263 265 274 279 277 261 196 142 130 144 149 132 117 118 144 156 152 153 156 161 152 156 158 157 161 171 176 174 196 214 226 243 229 220 224 223 230 237 239
264 264 259 267 270 265 274 284 300 316 330 69 94 108 89 114 115 107 106 102 136 162 162 160 165 163 157 161 159 172 180 179 183 205 218 224 240 236 228 232 235 239 237 234
261 260 260 268 291 293 285 283 300 295 306 331 74 125 109 87 83 86 95 94 134 169 169 163 164 160 165 175 178 191 199 200 208 218 231 230 236 237 231 234 238 239 236 233
254 261 263 271 288 286 275 254 299 306 326 252 208 250 111 84 81 81 68 54 49 126 164 155 157 165 182 199 194 206 213 219 220 219 233 241 239 251 246 241 242 248 246 239
253 258 260 289 304 292 271 290 10 12 17 351 44 63 87 89 82 70 66 55 40 48 120 132 142 161 191 208 212 219 216 218 221 225 234 237 234 240 245 241 246 246 249 245
248 256 255 294 288 300 345 3 16 12 26 32 59 85 88 86 86 83 69 58 29 19 67 120 157 181 210 215 212 208 213 223 228 235 248 247 239 241 237 234 240 242 243 245
250 250 254 288 292 326 333 358 18 18 32 21 63 106 100 109 108 100 82 36 340 341 16 90 175 198 222 222 211 214 224 233 235 239 246 242 232 242 238 232 238 239 234 234
274 261 278 294 339 331 328 329 340 5 4 331 43 89 76 38 99 81 38 285 297 291 285 252 248 251 231 212 201 218 239 244 239 235 236 238 235 237 238 236 237 241 241 242
277 279 288 296 320 324 329 325 327 328 329 331 342 191 112 335 297 237 252 291 290 284 276 262 256 261 253 229 228 236 244 246 246 242 238 231 234 253 255 252 239 241 247 245
274 285 287 291 308 311 312 314 317 317 312 302 282 260 236 241 246 277 283 293 299 289 268 257 250 252 251 237 243 246 249 252 253 244 237 231 225 240 291 245 213 209 210 209
293 303 299 299 301 302 306 303 298 292 289 288 283 275 259 243 238 247 270 275 273 279 271 259 255 255 256 243 248 254 257 255 255 248 239 235 230 226 234 251 244 231 223 206
304 306 296 295 297 296 293 292 288 278 271 265 266 271 280 260 247 250 264 283 280 278 270 261 254 256 260 251 245 252 259 257 257 256 255 245 238 235 235 227 227 239 239 213
286 281 278 281 280 277 278 278 278 274 271 267 275 275 276 264 258 262 265 280 283 275 272 262 256 262 261 253 246 252 258 255 253 259 262 257 246 244 244 243 231 220 210 207
279 279 276 275 274 273 272 268 269 269 268 271 271 268 265 266 269 275 273 271 270 276 285 281 267 262 270 267 256 250 255 262 254 253 251 244 240 241 242 233 225 219 219 207
264 269 273 270 270 275 274 269 270 270 270 274 277 274 268 262 273 279 268 267 269 270 267 256 260 271 274 268 259 254 256 252 248 249 248 254 252 243 238 230 227 227 215 203
263 268 272 276 278 278 277 274 270 268 266 278 284 277 267 257 266 277 276 275 274 277 267 248 247 268 274 272 264 258 257 251 243 239 244 253 260 252 245 237 220 210 205 199
273 275 280 285 285 283 280 276 276 273 272 272 271 266 263 258 258 260 260 260 265 264 267 265 236 252 260 262 269 261 252 252 250 232 228 225 239 249 245 238 229 220 218 204
282 286 282 277 279 281 279 272 269 263 258 257 259 259 259 259 255 247 249 253 251 255 245 233 233 244 240 243 262 257 252 252 250 240 230 224 230 244 243 237 230 226 222 212
276 276 277 274 277 277 279 275 268 260 255 250 253 256 258 258 247 239 243 249 253 260 242 220 227 234 236 245 250 256 256 255 250 244 239 235 240 248 249 241 235 238 230 231
287 287 286 286 282 277 279 276 267 259 254 248 247 251 254 250 243 235 230 243 248 224 235 233 219 129 323 261 245 251 247 242 243 244 248 241 241 247 259 258 254 254 245 249
293 291 289 291 290 284 283 280 276 266 256 251 247 244 242 241 236 232 237 229 222 204 221 178 107 102 319 264 259 265 271 264 245 245 255 257 260 255 261 271 274 289 293 271
295 299 300 301 300 295 288 281 281 278 268 254 241 240 235 223 235 240 243 170 162 159 177 130 132 168 255 252 264 271 288 297 300 304 282 260 249 253 263 271 286 310 282 275
287 288 291 292 287 284 278 268 258 253 249 242 230 234 234 203 205 216 208 150 152 157 171 157 180 213 230 260 332 8 14 18 16 358 321 306 315 334 347 5 13 346 338 328
281 277 284 280 288 292 293 292 268 219 226 237 231 233 88 100 106 137 155 176 151 133 138 138 177 204 217 315 7 27 29 20 18 9 14 20 19 14 8 5 1 347 348 4
266 288 293 283 287 294 299 304 330 68 47 81 97 89 66 82 96 104 107 114 128 132 119 88 73 34 33 33 24 8 9 6 7 7 356 12 18 10 352 356 1 4 1 10
Height
1448 1445 1447 1449 1447 1444 1447 1449 1457 1455 1454 1454 1453 1457 1461 1464 1467 1470 1473 1476 1480 1482 1484 1486 1488 1490 1491 1493 1494 1495 1496 1496 1497 1498 1499 1499 1499 1500 1500 1500 1501 1501 1501 1502
1452 1446 1445 1449 1447 1444 1443 1443 1445 1446 1450 1448 1452 1456 1460 1464 1466 1470 1473 1475 1479 1481 1482 1484 1486 1488 1489 1491 1492 1494 1494 1495 1495 1496 1496 1496 1497 1497 1497 1497 1497 1498 1498 1498
1460 1450 1449 1455 1446 1444 1444 1443 1445 1450 1449 1447 1451 1456 1460 1464 1466 1470 1473 1476 1477 1479 1481 1483 1484 1486 1487 1489 1491 1492 1492 1493 1493 1494 1494 1494 1494 1494 1494 1494 1494 1494 1494 1495
1458 1459 1471 1451 1437 1437 1442 1444 1443 1445 1446 1447 1452 1456 1460 1463 1467 1470 1472 1475 1476 1478 1480 1482 1483 1485 1486 1487 1489 1489 1490 1491 1491 1491 1491 1491 1491 1491 1491 1491 1491 1491 1491 1491
1459 1461 1456 1446 1440 1440 1444 1450 1446 1446 1449 1450 1453 1456 1461 1464 1467 1469 1472 1474 1476 1477 1479 1480 1482 1483 1484 1486 1486 1487 1488 1488 1489 1489 1489 1489 1489 1488 1488 1488 1489 1489 1488 1488
1457 1464 1466 1453 1442 1440 1443 1452 1448 1449 1451 1452 1455 1460 1463 1465 1467 1469 1471 1473 1474 1476 1477 1478 1480 1481 1482 1483 1484 1485 1485 1486 1486 1486 1486 1486 1486 1486 1486 1486 1485 1486 1485 1486
1457 1459 1455 1447 1443 1443 1456 1458 1451 1452 1454 1455 1457 1461 1464 1466 1468 1470 1472 1473 1474 1475 1476 1477 1478 1479 1480 1481 1481 1482 1483 1483 1483 1483 1483 1483 1483 1482 1482 1482 1482 1483 1482 1482
1455 1461 1462 1448 1447 1450 1453 1451 1452 1453 1456 1458 1459 1462 1464 1466 1468 1470 1471 1472 1473 1474 1475 1476 1476 1477 1478 1478 1479 1480 1480 1480 1479 1479 1480 1480 1479 1479 1479 1479 1479 1479 1479 1479
1449 1454 1450 1449 1450 1452 1451 1452 1454 1455 1457 1459 1460 1462 1465 1467 1468 1469 1470 1472 1473 1473 1474 1474 1475 1475 1475 1476 1476 1476 1477 1476 1476 1476 1476 1476 1476 1476 1476 1476 1476 1476 1476 1476
1447 1447 1447 1449 1451 1452 1453 1453 1454 1456 1457 1459 1460 1462 1464 1467 1467 1468 1469 1471 1472 1472 1472 1472 1472 1473 1473 1473 1473 1473 1473 1473 1473 1473 1472 1473 1472 1472 1472 1472 1472 1472 1472 1472
1448 1448 1449 1449 1452 1453 1454 1454 1454 1456 1458 1459 1460 1461 1463 1464 1465 1466 1468 1468 1469 1470 1470 1470 1470 1470 1470 1470 1470 1470 1470 1470 1470 1469 1469 1469 1469 1469 1468 1468 1469 1469 1469 1469
1449 1449 1451 1452 1453 1454 1455 1455 1455 1456 1457 1458 1460 1461 1462 1463 1464 1465 1465 1466 1466 1467 1467 1467 1466 1466 1467 1467 1467 1466 1466 1466 1466 1466 1466 1465 1465 1465 1464 1464 1464 1465 1465 1465
1448 1450 1451 1452 1453 1454 1455 1455 1456 1456 1457 1458 1459 1460 1460 1461 1462 1462 1463 1463 1464 1464 1464 1464 1463 1463 1463 1463 1463 1463 1463 1463 1463 1462 1462 1462 1462 1461 1460 1460 1460 1461 1461 1461
1449 1450 1451 1452 1453 1453 1454 1454 1455 1455 1455 1456 1457 1458 1459 1459 1460 1460 1460 1461 1461 1461 1461 1460 1460 1460 1460 1460 1459 1459 1459 1459 1459 1459 1459 1458 1458 1458 1457 1457 1456 1456 1457 1457
1449 1450 1451 1451 1452 1452 1452 1453 1453 1453 1453 1454 1455 1456 1457 1456 1457 1457 1457 1458 1458 1458 1457 1457 1456 1456 1456 1456 1456 1455 1455 1455 1455 1455 1455 1454 1454 1454 1454 1454 1454 1453 1453 1454
1449 1449 1449 1449 1449 1450 1450 1450 1450 1451 1451 1452 1453 1453 1454 1454 1454 1454 1454 1454 1454 1454 1453 1453 1453 1452 1452 1452 1452 1451 1451 1451 1451 1451 1451 1451 1451 1451 1451 1451 1450 1450 1450 1451
1446 1446 1447 1447 1447 1447 1448 1448 1448 1448 1449 1450 1450 1451 1451 1451 1451 1451 1451 1451 1451 1451 1450 1449 1449 1449 1449 1448 1448 1447 1447 1447 1447 1447 1447 1447 1447 1447 1447 1447 1447 1447 1447 1448
1444 1444 1445 1445 1445 1445 1445 1445 1446 1446 1446 1447 1448 1448 1448 1448 1448 1448 1448 1448 1448 1447 1446 1446 1446 1445 1445 1444 1444 1444 1444 1444 1444 1443 1443 1444 1444 1443 1444 1444 1444 1444 1445 1445
1441 1441 1442 1442 1442 1442 1442 1443 1443 1443 1444 1445 1445 1445 1445 1445 1445 1445 1445 1445 1444 1443 1443 1442 1442 1441 1441 1441 1441 1441 1441 1441 1441 1440 1440 1441 1441 1441 1441 1441 1441 1441 1442 1442
1439 1439 1439 1439 1439 1439 1439 1439 1440 1440 1441 1441 1442 1442 1442 1442 1442 1441 1441 1441 1440 1440 1439 1439 1438 1438 1438 1438 1438 1438 1438 1438 1438 1438 1438 1438 1438 1437 1438 1438 1438 1439 1439 1439
1437 1437 1437 1436 1436 1436 1436 1436 1436 1436 1437 1438 1438 1438 1438 1438 1438 1438 1437 1437 1437 1437 1436 1435 1435 1435 1435 1435 1435 1435 1435 1435 1435 1435 1435 1435 1435 1435 1435 1436 1436 1436 1436 1437
1434 1434 1433 1433 1432 1432 1432 1432 1433 1433 1434 1434 1434 1435 1435 1435 1435 1435 1434 1434 1434 1434 1433 1433 1433 1432 1432 1433 1433 1433 1433 1432 1432 1433 1433 1433 1433 1433 1433 1434 1434 1435 1435 1435
1431 1431 1431 1430 1430 1429 1429 1429 1429 1430 1430 1430 1431 1431 1432 1432 1432 1432 1432 1432 1432 1431 1431 1431 1431 1431 1431 1431 1431 1431 1431 1431 1431 1431 1432 1431 1431 1431 1432 1433 1433 1433 1433 1433
1428 1428 1428 1428 1428 1427 1426 1426 1426 1427 1427 1427 1427 1428 1428 1428 1429 1429 1429 1429 1430 1429 1430 1429 1429 1430 1430 1430 1430 1430 1430 1430 1430 1430 1430 1430 1430 1430 1431 1431 1431 1431 1431 1431
1427 1426 1426 1426 1426 1425 1424 1424 1423 1423 1424 1424 1424 1425 1425 1425 1426 1426 1427 1427 1428 1428 1428 1428 1429 1429 1429 1429 1430 1429 1429 1429 1429 1429 1429 1429 1429 1429 1429 1429 1429 1429 1429 1429
1425 1425 1425 1425 1424 1423 1422 1422 1421 1421 1422 1422 1423 1423 1423 1424 1424 1425 1426 1426 1427 1427 1427 1428 1429 1429 1429 1429 1429 1429 1429 1429 1428 1428 1428 1428 1428 1428 1428 1428 1428 1427 1427 1427
1424 1424 1424 1423 1423 1422 1421 1421 1420 1421 1421 1421 1422 1423 1423 1424 1424 1424 1425 1425 1426 1427 1427 1428 1428 1429 1429 1429 1429 1429 1429 1429 1428 1428 1428 1428 1427 1427 1427 1427 1426 1426 1426 1425